Location: Firdgum
(53.2488°N, 5.5615°E)
Time: 08:29:04
(UTC+00:00)

NOSS 2-1 (D) - Pass Details

Date: 08 December 2019
Orbit: 456 x 1747 km, 63.3° (Epoch: 17 January)

Event Time Altitude Azimuth Distance (km) Brightness Sun altitude
Exits shadow 04:11:12 79° 112° (ESE) 895 4.2 -29.6°
Drops below altitude 10° 04:17:44 10° 132° (SE) 2,985 7.6 -28.6°
Sets 04:20:54 0° 133° (SE) 4,159 8.4 -28.1°
